This demonstration page uses our WeatherBlox Daily Observations layout. Learn more.

Left ArrowRight Arrow

38.20091, -84.87328

Hourly Observations for April 6, 2022

Temp ( °F °C ) Dew Point ( °F °C ) Humidity (%) Winds ( mph kmh ) Pressure ( in mb ) Visibility ( mi km ) Precip ( " mm )
12:07 am 00:07 Mostly Cloudy with Fog 47 8.3 46 7.8 97 97 Calm 29.69 1006 0 0 0.00 0.00
12:32 am 00:32 Mostly Cloudy with Fog 46 7.8 45 7.2 96 96 Calm 29.69 1005 1 1 0.00 0.00
12:39 am 00:39 Mostly Cloudy with Fog 45 7.2 45 7.2 100 100 WSW 3 6 29.70 1006 0 0 0.00 0.00
12:53 am 00:53 Mostly Cloudy with Fog 45 7.2 44 6.7 97 97 Calm 29.67 1005 0 0 0.00 0.00
1:23 am 01:23 Cloudy with Mist and Fog 46 7.8 45 7.2 96 96 Calm 29.70 1006 1 2 0.00 0.00
1:32 am 01:32 Cloudy with Mist and Fog 46 7.8 45 7.2 96 96 Calm 29.69 1005 2 3 0.00 0.00
1:36 am 01:36 Cloudy with Mist and Fog 46 7.8 45 7.2 96 96 Calm 29.70 1006 3 5 0.00 0.00
1:53 am 01:53 Cloudy with Mist and Fog 47 8.3 46 7.8 97 97 Calm 29.68 1005 3 5 0.00 0.00
2:00 am 02:00 Cloudy with Mist and Fog 47 8.3 46 7.8 97 97 Calm 29.69 1006 2 3 0.00 0.00
2:11 am 02:11 Cloudy with Mist and Fog 47 8.3 47 8.3 100 100 Calm 29.70 1006 3 5 0.00 0.00
2:53 am 02:53 Cloudy with Mist and Fog 49 9.4 48 8.9 97 97 Calm 29.67 1005 3 4 0.00 0.00
3:18 am 03:18 Cloudy with Mist and Fog 49 9.4 48 8.9 97 97 Calm 29.68 1005 3 5 0.00 0.00
3:53 am 03:53 Cloudy with Mist and Fog 50 10 49 9.4 96 96 SSE 3 6 29.66 1004 4 6 0.00 0.00
4:42 am 04:42 Cloudy with Mist and Fog 50 10 49 9.4 96 96 S 5 7 29.68 1005 6 10 0.00 0.00
4:53 am 04:53 Cloudy with Mist and Fog 50 10 49 9.4 96 96 S 5 7 29.66 1004 6 10 0.00 0.00
5:53 am 05:53 Cloudy 51 10.6 50 10 96 96 S 8 13 29.67 1005 10 16 0.00 0.00
6:39 am 06:39 Cloudy 51 10.6 50 10 96 96 SE 6 9 29.66 1004 8 13 0.00 0.00
6:53 am 06:53 Cloudy 51 10.6 50 10 96 96 SE 6 9 29.64 1004 9 14 0.00 0.00
7:53 am 07:53 Cloudy 52 11.1 50 10 93 93 SSE 6 9 29.67 1005 8 13 0.00 0.00
8:06 am 08:06 Cloudy 51 10.6 50 10 96 96 SSE 6 9 29.68 1005 7 11 0.00 0.00
8:34 am 08:34 Cloudy 52 11.1 50 10 93 93 SE 7 11 29.67 1005 8 13 0.00 0.00
8:53 am 08:53 Partly Cloudy 52 11.1 50 10 93 93 SE 7 11 29.65 1004 9 14 0.00 0.00
9:53 am 09:53 Cloudy with Rain 53 11.7 51 10.6 93 93 SSE 10 17 29.66 1004 3 5 0.06 1.52
10:04 am 10:04 Cloudy with Heavy Rain 52 11.1 51 10.6 97 97 S 12 19 29.69 1005 2 3 0.05 1.27
10:21 am 10:21 Cloudy with Heavy Rain 53 11.7 51 10.6 93 93 SSE 5 7 29.67 1005 1 2 0.18 4.57
10:30 am 10:30 Cloudy with Rain 53 11.7 51 10.6 93 93 SSE 3 6 29.67 1005 1 2 0.25 6.35
10:53 am 10:53 Cloudy with Rain 53 11.7 52 11.1 96 96 ESE 3 6 29.67 1005 2 3 0.40 10.16
11:03 am 11:03 Cloudy with Light Rain 53 11.7 52 11.1 96 96 SE 8 13 29.66 1005 5 8 0.01 0.25
11:32 am 11:32 Cloudy with Light Rain 54 12.2 53 11.7 97 97 SE 14 22 29.64 1004 5 8 0.04 1.02
11:39 am 11:39 Cloudy with Light Rain 54 12.2 53 11.7 97 97 SE 9 15 29.62 1003 5 8 0.05 1.27
11:53 am 11:53 Cloudy 55 12.8 53 11.7 93 93 SSE 8 13 29.61 1003 10 16 0.05 1.27
12:02 pm 12:02 Cloudy 55 12.8 53 11.7 93 93 SSE 10 17 29.62 1003 10 16 0.00 0.00
12:53 pm 12:53 Cloudy 57 13.9 55 12.8 93 93 SSE 9 15 29.60 1002 9 14 0.00 0.00
1:53 pm 13:53 Cloudy with Light Rain 58 14.4 56 13.3 93 93 S 7 11 29.59 1002 2 3 0.01 0.25
2:00 pm 14:00 Cloudy with Light Rain 58 14.4 57 13.9 97 97 S 6 9 29.58 1002 1 2 0.03 0.76
2:12 pm 14:12 Cloudy with Thunderstorms 58 14.4 57 13.9 97 97 SSW 5 7 29.59 1002 2 3 0.04 1.02
2:19 pm 14:19 Cloudy with Thunderstorms 58 14.4 58 14.4 100 100 S 5 7 29.59 1002 2 2 0.05 1.27
2:25 pm 14:25 Cloudy with Light Rain 58 14.4 57 13.9 97 97 SSW 5 7 29.59 1002 2 3 0.05 1.27
2:35 pm 14:35 Cloudy with Light Rain 59 15 57 13.9 93 93 SW 7 11 29.59 1002 3 4 0.06 1.52
2:44 pm 14:44 Cloudy with Light Rain 57 13.9 55 12.8 93 93 WNW 15 24 29.61 1003 2 3 0.07 1.78
2:53 pm 14:53 Cloudy with Light Rain 56 13.3 53 11.7 90 90 WNW 12 19 29.60 1002 2 3 0.08 2.03
2:55 pm 14:55 Cloudy with Rain 55 12.8 53 11.7 93 93 WNW 12 19 29.61 1003 2 2 0.01 0.25
3:02 pm 15:02 Cloudy with Light Rain 55 12.8 53 11.7 93 93 WNW 13 20 29.61 1003 2 3 0.02 0.51
3:13 pm 15:13 Cloudy with Light Rain 54 12.2 52 11.1 93 93 WNW 15 24 29.61 1003 3 5 0.03 0.76
3:26 pm 15:26 Cloudy with Light Rain 54 12.2 51 10.6 90 90 WNW 13 20 29.62 1003 8 13 0.04 1.02
3:45 pm 15:45 Cloudy with Rain 53 11.7 51 10.6 93 93 WNW 8 13 29.62 1003 4 6 0.05 1.27
3:53 pm 15:53 Cloudy with Light Rain 54 12.2 52 11.1 93 93 NW 7 11 29.62 1003 4 6 0.06 1.52
4:00 pm 16:00 Cloudy with Light Rain 54 12.2 52 11.1 93 93 NNW 8 13 29.62 1003 9 14 0.00 0.00
4:44 pm 16:44 Cloudy with Rain 53 11.7 51 10.6 93 93 WNW 6 9 29.63 1004 2 3 0.06 1.52
4:53 pm 16:53 Cloudy with Light Rain 53 11.7 51 10.6 93 93 W 6 9 29.65 1004 4 6 0.07 1.78
5:53 pm 17:53 Cloudy with Light Rain 53 11.7 51 10.6 93 93 W 6 9 29.64 1004 7 11 0.05 1.27
6:11 pm 18:11 Cloudy with Light Rain 53 11.7 51 10.6 93 93 WSW 8 13 29.67 1005 10 16 0.01 0.25
6:36 pm 18:36 Cloudy with Light Rain 53 11.7 51 10.6 93 93 W 6 9 29.66 1005 10 16 0.01 0.25
6:53 pm 18:53 Cloudy 53 11.7 50 10 89 89 W 8 13 29.67 1005 10 16 0.01 0.25
7:23 pm 19:23 Cloudy 52 11.1 50 10 93 93 WSW 5 7 29.69 1005 10 16 0.01 0.25
7:32 pm 19:32 Cloudy 52 11.1 50 10 93 93 WSW 5 7 29.69 1005 10 16 0.01 0.25
7:53 pm 19:53 Cloudy 52 11.1 50 10 93 93 W 5 7 29.69 1005 10 16 0.01 0.25
8:53 pm 20:53 Cloudy 52 11.1 50 10 93 93 WSW 3 6 29.71 1006 10 16 0.00 0.00
9:53 pm 21:53 Cloudy 51 10.6 49 9.4 92 92 SSW 6 9 29.75 1007 8 13 0.00 0.00
10:53 pm 22:53 Cloudy 50 10 49 9.4 96 96 SSW 5 7 29.75 1008 7 11 0.00 0.00
11:53 pm 23:53 Mostly Clear 49 9.4 48 8.9 97 97 SSW 6 9 29.75 1008 7 11 0.00 0.00

Powered by AerisWeather